Showing default

TIANTONG-1 2, 46916

Orbit data source: Space-Track

TIANTONG-1 2, 46916 is a payload satellite owned by CAST (CN) in GEO that was launched on Thu, 12 Nov 2020 UTC via a CHANG ZHENG 3B launch vehicle from the Xichang Space Center, China (XSC). Payload-class satellites include a variety of spacecraft equipped with specific instruments for various scientific and technological missions. These include communications satellites like Starlink; space stations such as the ISS; scientific satellites like the Hubble; Earth observation satellites from companies like Planet Labs, Umbra, and HawkEye 360; GPS; miniature CubeSats for education and research; and military/defense satellites.

Not visible in the next 10 days
Identifier
46916, 2020-082A
Orbit
GEO
Country
Flag of CNCN / PRC
Related business
Manufacturer
CAST
Mission
Operational Civil Communications
Bus & Motor
DFH-4, DFH-4 LAE
Mass
~5,200 kg wet, ~2,500 kg dry
Launch date (UTC)
2020-11-12 (6 years ago)
Launch vehicle
CHANG ZHENG 3B
Launch site
Xichang Space Center, China (XSC)
Object type
Payload
Rocket body
Debris
Shape & HBR
Box + 2 Pan, 15.0 m
Radar Cross Section
34.063 m², Large (>1 m²)

Expand to show TLE details & history
Last TLE update: 1 day ago

TLE from 1 day ago
0 TIANTONG-1 2
1 46916U 20082A   26172.23031074 -.00000358  00000-0  00000+0 0  9992
2 46916   0.7848 328.1695 0001133 115.6613  33.3919  1.00267638 20698
Epoch: 2026-06-21T05:31Z
TLE epoch observation values (Epoch: 2026-06-21T05:31:38.847Z)
Latitude
0.41956°
Longitude
124.89667°
Altitude
35,783.189 km
Speed
3.075 km/s
True Right ascension
07h 48m 58s
True Declination
0° 25' 09"
Sunlit
Object was in daylight at epoch
Visualization orbit readout
Latitude
Unknown
Longitude
Unknown
Altitude
Unknown
Speed
Unknown
Apparent Right ascension
Unknown
Apparent Declination
Unknown
Sunlit
N/A
Visualization observer readout
Local Sidereal Time
21:30:08
Azimuth
Unknown
Elevation
Unknown
Doppler factor
Unknown
Orbital elements
Apogee altitude
35,793.605 km
Perigee altitude
35,784.05 km
Semi-major axis
42,166.965 km
Eccentricity
0.00011
Inclination
0.7848°
RAAN
328.1695°
Arg. of periapsis
115.6613°
True anomaly
33.39905°
Mean anomaly
33.3919°
Eccentric anomaly
33.39547°
Mean motion
0.25066 °/min
Orbital period
1,436.21 mins
BSTAR
0
Loading maneuver chart data...
Computing Atmospheric mass density...
Loading historical data...
Loading historical data...
Loading historical data...
Loading historical data...
Loading historical data...
Loading historical data...
Loading historical data...
Other satellites on launch #82 in the year 2020 (2020-11-12 UTC)

Documentation

Showing up to 5 results
|